DIAMOND RED (42783 NORAD) Tracking and Keplerian Element Data

This shows tracking and keplerian element data for the satellite.

Feedback or suggestion? Click here.




ElementValue
Catalog42783
NameDIAMOND RED
Epoch Orbit12431
Epoch Day262.1360701
Epoch Year2019
RAAN317.6575
Inclination97.342
Eccentricity0.0010425
Argument of Perigee265.2935
Mean Anonmoly94.7111
Mean Motion15.22321628
Decay Rate6.52E-06
L11 42783U 17036U 19262.13607010 .00000652 00000-0 31256-4 0 9993
L22 42783 97.3420 317.6575 0010425 265.2935 94.7111 15.22321628124315

Live tracking and technical data element details for DIAMOND RED (NORAD 42783). DIAMOND RED can be tracked NOW for your location showing map with azimuth and elevation plus other details from your city location.

Track the satellite on the map from your city or location and see movement details for azimuth, elevation, latitude, longitude, range, height, and movement on the map or in text.







IsCatalogInMostPopularTable: catalog: 42783, numindb: 508
Update: records affected: 1



GetName: 42783 DIAMOND RED

Hit Count: updated at: Thu, 19 Sep 2019 17:25:08 GMT